Volver al catálogo

FENGYUN 1C DEB

ActivoPO
NORAD 30623·DEBRIS·🇨🇳 China

Lanzado May 10, 1999 desde Taiyuan Satellite Launch Center

Loading…

Próximos Pases (próximas 24 horas)

TLE

ActualizadoSource: Space-Track

Época: Sep 14, 2026, 09:18 UTC

1 30623U 99025ANE 26257.38797479  .00000236  00000-0  36930-3 0  9990
2 30623  98.8559  42.3245 0404598 147.2419 243.1347 13.29574607948793

Sigue FENGYUN 1C DEB en tiempo real con AllMySat

Download on the App Store